Showing default

ESSA 7 (TOS-E), 3345

Orbit data source: Space-Track

ESSA 7 (TOS-E), 3345 is a payload satellite owned by ESSA (US) in SSO that was launched on Fri, 16 Aug 1968 UTC via a THOR DELTA N launch vehicle from the Air Force Western Test Range (AFWTR). Payload-class satellites include a variety of spacecraft equipped with specific instruments for various scientific and technological missions. These include communications satellites like Starlink; space stations such as the ISS; scientific satellites like the Hubble; Earth observation satellites from companies like Planet Labs, Umbra, and HawkEye 360; GPS; miniature CubeSats for education and research; and military/defense satellites.

Loading next visibility...
Identifier
3345, 1968-069A
Orbit
SSO
Country
Flag of USUS
Related business
Manufacturer
RCA/East Windsor
Mission
Non-operational spacecraft
Bus & Motor
TIROS I, Unknown motor
Mass
154 kg wet, 154 kg dry
Launch date (UTC)
1968-08-16 (57 years ago)
Launch vehicle
THOR DELTA N
Launch site
Air Force Western Test Range (AFWTR)
Object type
Payload
Rocket body
Debris
Shape & HBR
Unknown
Radar Cross Section
Medium (>0.1 m² and <1 m²)

Expand to show TLE details & history
Last TLE update: 18 hours ago

TLE from 18 hours ago
0 ESSA 7 (TOS-E)
1 03345U 68069A   26035.89426664 -.00000042  00000-0  10363-4 0  9999
2 03345 101.5424   5.7988 0027050  66.5299 350.9201 12.53008467628419
Epoch: 2026-02-04T21:27Z
TLE epoch observation values (Epoch: 2026-02-04T21:27:44.637Z)
Latitude
55.72589°
Longitude
-108.54065°
Altitude
1,440.093 km
Speed
7.156 km/s
True Right ascension
23h 13m 47s
True Declination
55° 34' 47"
Sunlit
Object was in daylight at epoch
Visualization orbit readout
Latitude
Unknown
Longitude
Unknown
Altitude
Unknown
Speed
Unknown
Apparent Right ascension
Unknown
Apparent Declination
Unknown
Sunlit
N/A
Visualization observer readout
Local Sidereal Time
17:43:34
Azimuth
Unknown
Elevation
Unknown
Doppler factor
Unknown
Orbital elements
Apogee altitude
1,470.641 km
Perigee altitude
1,428.294 km
Semi-major axis
7,827.604 km
Eccentricity
0.00271
Inclination
101.5424°
RAAN
5.7988°
Arg. of periapsis
66.5299°
True anomaly
350.87102°
Mean anomaly
350.9201°
Eccentric anomaly
350.89558°
Mean motion
3.13401 °/min
Orbital period
114.87 mins
BSTAR
0.000010363
Loading maneuver chart data...
Computing Atmospheric mass density...
Loading historical data...
Loading historical data...
Loading historical data...
Loading historical data...
Loading historical data...
Loading historical data...
Loading historical data...

Documentation

Showing up to 5 results
|